Location: Zwardon
(49.5170°N, 18.9830°E)
Time: 00:44:55
(UTC+01:00)

ISS - Visible Passes

Search period start: 26 January 2020 00:00
Search period end: 05 February 2020 00:00
Orbit: 416 x 423 km, 51.6° (Epoch: 26 January)

Date Brightness Start Highest point End Pass type
(mag) Time Alt. Az. Time Alt. Az. Time Alt. Az.
26 Jan -3.8 18:28:26 10° W 18:31:49 72° NNW 18:31:57 71° N visible
27 Jan -3.8 17:40:54 10° WSW 17:44:17 88° NNW 17:46:24 21° ENE visible
27 Jan -1.3 19:17:55 10° WNW 19:19:22 23° WNW 19:19:22 23° WNW visible
28 Jan -3.6 18:30:21 10° W 18:33:41 58° N 18:33:48 58° N visible
29 Jan -3.6 17:42:45 10° W 17:46:06 62° N 17:48:13 21° ENE visible
29 Jan -1.4 19:19:44 10° WNW 19:21:11 23° WNW 19:21:11 23° WNW visible
30 Jan -3.7 18:32:10 10° WNW 18:35:32 61° N 18:35:36 61° NNE visible
31 Jan -3.5 17:44:35 10° WNW 17:47:56 58° N 17:50:03 20° ENE visible
31 Jan -1.4 19:21:28 10° WNW 19:23:01 25° WNW 19:23:01 25° WNW visible
01 Feb -3.9 18:33:54 10° WNW 18:37:18 85° NNE 18:37:29 78° E visible
02 Feb -3.7 17:46:18 10° WNW 17:49:42 70° NNE 17:52:00 19° E visible
02 Feb -1.5 19:23:13 10° W 19:24:58 25° W 19:24:58 25° W visible
03 Feb -3.2 18:35:34 10° WNW 18:38:53 54° SSW 18:39:35 44° SSE visible
04 Feb -3.6 17:47:57 10° WNW 17:51:20 75° SSW 17:54:17 13° ESE visible
04 Feb -1.1 19:25:20 10° W 19:27:16 18° SW 19:27:16 18° SW visible
